Volver al catálogo

THE ARAB SATELLITE 813

ActivoComunicacionesSSO
NORAD 66994·PAYLOAD·🇨🇳 China

Lanzado Dec 10, 2025 desde Jiuquan Satellite Launch Center

Loading…

Próximos Pases (próximas 24 horas)

TLE

ActualizadoSource: Space-Track

Época: Sep 14, 2026, 03:29 UTC

1 66994U 25292B   26257.14569173  .00003577  00000-0  24165-3 0  9995
2 66994  97.6266 332.1168 0015718  60.4904 299.7889 15.07128673 41840

Sigue THE ARAB SATELLITE 813 en tiempo real con AllMySat

Download on the App Store